Location: Czekanka
(50.4925°N, 19.2643°E)
Time: 08:24:07
(UTC+00:00)

SL-16 R/B - Pass Details

Date: 22 September 2024
Orbit: 842 x 846 km, 71.0° (Epoch: 05 October)

Event Time Altitude Azimuth Distance (km) Brightness Sun altitude
Rises 23:40:14 0° 327° (NNW) 3,413 5.8 -37.8°
Reaches altitude 10° 23:44:50 10° 1° (N) 2,474 5.3 -37.6°
Maximum altitude 23:46:33 11° 19° (NNE) 2,381 5.2 -37.5°
Drops below altitude 10° 23:48:17 10° 37° (NE) 2,472 5.3 -37.4°
Sets 23:52:51 0° 71° (ENE) 3,404 5.9 -37.1°
